Wilmington, OH NWS (KILN) Doppler Radar Loop using GRLevel3 Software
Last 10 volume scans
Wilmington, OH Radar using GRLevel3

                    
                     

Wilmington, OH NWS Radar Loop
Wilmington OH Radar Loop

Regional Radar Loop
Regional Radar Loop

Eastern US Sector IR Image
Eastern US Sector IR Image

Latest image from the National Oceanic and Atmospheric Administration (NOAA) Geostationary Satellite Server.


SPC Day 1 Categorical Outlook
SPC Day 1 Categorical Outlook

Category Criteria
Thunderstorms - 10% or greater probability of non-severe or near severe thunderstorms.
1: Marginal - 2% tornado probability, or
- 5% severe hail or severe wind probability.
2: Slight - 5% tornado probability, or
- 15% severe hail or severe wind probability WITH OR WITHOUT 10% or greater probability of hail 2 inches or greater in diameter, or wind gusts 75 mph or greater.
3: Enhanced - 10% tornado probability WITH OR WITHOUT 10% or greater probability of an EF2+ tornado, or
- 15% tornado probability, or
- 30% severe hail or severe wind probability WITH OR WITHOUT 10% or greater probability of hail 2 inches or greater in diameter, or wind gusts 75 mph or greater, or
- 45% probability of severe hail or wind.
4: Moderate - 15% tornado probability AND 10% or greater probability of an EF2+ tornado, or
- 30% tornado probability, or
- 45% severe wind probability AND 10% or greater probability of a wind gusts 75 mph or greater, or
- 45% severe hail probability AND 10% or greater probability of hail 2 inches or greater in diameter, or
- 60% severe wind probability, or
- 60% severe hail probability WITH OR WITHOUT 10% or greater probability of hail 2 inches or greater in diameter.
5: High - 30% tornado probability AND 10% or greater probability of an EF2+ tornado, or
- 45% or greater tornado probability WITH OR WITHOUT 10% or greater probability of an EF2+ tornado, or
- 60% severe wind probability AND a 10% or greater probability of a wind gust 75 mph or greater.

NOAA Day 1 National Forecast Map
NOAA Day 1 National Forcast Map

Day 1 Precipitation Forecast
Day 1 Precipitation Forecast


SPC Day 2 Categorical Outlook
SPC Day 2 Categorical Outlook

NOAA Day 2 National Forecast Map
NOAA Day 2 National Forcast Map

Day 2 Precipitation Forecast
Day 2 Precipitation Forecast


SPC Day 3 Categorical Outlook
SPC Day 3 Categorical Outlook

NOAA Day 3 National Forecast Map
NOAA Day 3 National Forcast Map

Day 3 Precipitation Forecast
Day 3 Precipitation Forecast


National Weather Service Regional Observations

Station State Time Temperature Dew Point RH Wind Heat Index Wind Chill Pressure Visibility Weather
Charleston West Virginia 12/15/2017 9:54 PM 32.0 18.0 56 SW (230) at 8 N/A 25.2 30.11 10.0 --
Chicago O'hare Illinois 12/15/2017 9:51 PM 34.0 21.0 59 SSW (210) at 9 N/A 26.6 29.89 10.0 --
Cleveland Ohio 12/15/2017 9:51 PM 26.1 17.1 68 SW (230) at 12 N/A 15.6 29.98 10.0 --
Columbus Ohio 12/15/2017 9:51 PM 30.9 19.9 63 WSW (240) at 14 N/A 21.0 30.05 10.0 --
Covington Kentucky 12/15/2017 9:52 PM 32.0 23.0 69 SSW (210) at 8 N/A 25.2 30.08 10.0 --
Dayton Ohio 12/15/2017 8:56 PM 28.9 21.9 75 SW (230) at 16 N/A 17.6 30.04 10.0 --
Dothan Alabama 12/15/2017 9:53 PM 43.0 30.0 60 N (360) at 5 N/A 40.3 30.26 10.0 --
Evansville Indiana 12/15/2017 9:54 PM 37.0 27.0 67 S (180) at 5 N/A 33.3 30.13 10.0 --
Fort Wayne Indiana 12/15/2017 9:54 PM 30.0 21.0 69 SW (230) at 14 N/A 19.6 29.97 10.0 --
Frankfort Kentucky 12/15/2017 9:53 PM 30.0 19.9 66 SSW (210) at 6 N/A 24.1 30.12 10.0 --
Huntsville Alabama 12/15/2017 9:53 PM 30.0 25.0 81 E (90) at 3 N/A 26.8 30.24 9.0 --
Indianapolis Indiana 12/15/2017 9:54 PM 30.9 21.9 69 SSW (200) at 10 N/A 22.3 30.03 10.0 --
Knoxville Tennessee 12/15/2017 9:53 PM 28.0 24.1 85 SW (220) at 5 N/A 23.2 30.22 10.0 --
Lexington Kentucky 12/15/2017 9:54 PM 33.1 21.9 63 SSW (210) at 7 N/A 27.1 30.12 10.0 --
Louisville Kentucky 12/15/2017 8:56 PM 35.1 23.0 61 SW (220) at 6 N/A 30.4 30.13 10.0 --
Nashville Tennessee 12/15/2017 9:53 PM 30.9 23.0 72 S (180) at 8 N/A 23.5 30.21 10.0 --
Noctor/Jackson Kentucky 12/15/2017 9:53 PM 30.9 21.0 66 SW (220) at 5 N/A 26.2 30.12 10.0 --
Paducah Kentucky 12/15/2017 9:53 PM 37.9 25.0 59 SSW (200) at 8 N/A 32.0 30.12 10.0 --
Pittsburgh Pennsylvania 12/15/2017 9:51 PM 28.0 18.0 65 W (270) at 14 N/A 17.1 29.96 10.0 --
St. Louis Missouri 12/15/2017 9:51 PM 35.1 23.0 61 SSW (210) at 7 N/A 29.3 30.05 10.0 --
West Palm Beach Florida 12/15/2017 9:53 PM 62.1 55.9 80 Calm N/A N/A 30.17 10.0 --
Wilmington Ohio 12/15/2017 9:54 PM 27.0 21.9 81 SW (220) at 7 N/A 19.6 30.06 10.0 --

These are regional hourly observations made by the National Weather Service. The observations are usually made between 50 and 59 minutes past the hour and are usually available by 15 minutes past the next hour.


This page will reload automatically every 10 minutes.

36,445 Page Views